Effective Sunday, March 17, 2024, the National Weather Service National Data Buoy Center will discontinue its Dial-A-Buoy Interactive Voice Response system. For more information, see Service Change Notice 24-06 (PDF).

Station GTXF1 - Pellicer Creek, Guana Tolomato Matanzas Reserve, FL Image indicating link to RSS feed of recent meteorological observations for station GTXF1


Conditions at GTXF1 as of
(11:45 pm EST on 03/01/2024)
0445 GMT on 03/02/2024:
     

Click on the graph icon in the table below to see a time series plot of the last five days of that observation.

5-day plot - Wind Speed Wind Speed (WSPD): 0.0 kts
5-day plot - Atmospheric Pressure Atmospheric Pressure (PRES):30.21 in
5-day plot - Air Temperature Air Temperature (ATMP): 66.9 °F
5-day plot - Dew Point Dew Point (DEWP): 62.6 °F
5-day plot -  Wind Speed, Wind Gust and Atmospheric Pressure Combined plot of Wind Speed, Gust, and Air Pressure
Previous observations
TIME
(EST)
5-day plot - Wind Direction
WDIR
 
5-day plot - Wind Speed
WSPD
kts
5-day plot - Wind Gust
GST
kts
5-day plot - Wave Height
WVHT
ft
5-day plot - Dominant Wave Period
DPD
sec
5-day plot - Average Wave Period
APD
sec
5-day plot - Mean Wave Direction
MWD
 
5-day plot - Atmospheric Pressure
PRES
in
5-day plot - Pressure Tendency
PTDY
in
5-day plot - Air Temperature
ATMP
°F
5-day plot - Water Temperature
WTMP
°F
5-day plot - Dew Point
DEWP
°F
5-day plot - Salinity
SAL
psu
5-day plot - Visibility
VIS
nmi
5-day plot - Tide (above MLLW)
TIDE
ft
2024-03-01 11:30 pm SE 1.9-----30.21- 67.5- 63.0---
2024-03-01 11:15 pmSSE 1.9-----30.21- 67.3- 63.0---
2024-03-01 11:00 pmSSE 1.9-----30.21+0.00 66.4- 62.8---
2024-03-01 10:45 pmSSE 1.9-----30.21- 66.2- 62.2---
2024-03-01 10:30 pmSSE 1.0-----30.24- 66.4- 62.2---
2024-03-01 10:15 pmSSE 1.0-----30.24- 66.4- 62.2---
2024-03-01 10:00 pm- 0.0-----30.24+0.06 66.7- 62.2---
2024-03-01 09:45 pmNNW 1.0-----30.24- 67.5- 61.9---
2024-03-01 09:30 pm- 0.0-----30.24- 68.5- 61.9---
2024-03-01 09:15 pmWNW 1.0-----30.24- 68.9- 62.2---
2024-03-01 09:00 pmWNW 1.9-----30.21+0.03 69.6- 62.6---
2024-03-01 08:45 pm SW 2.9-----30.21- 70.0- 62.6---
2024-03-01 08:30 pm S 5.1-----30.21- 70.2- 62.8---
2024-03-01 08:15 pm S 5.1-----30.21- 70.0- 62.6---
2024-03-01 08:00 pmSSE 5.1-----30.21+0.03 69.6- 62.6---
2024-03-01 07:45 pmSSE 6.0-----30.21- 69.6- 62.2---
2024-03-01 07:30 pmSSE 6.0-----30.21- 68.7- 62.4---
2024-03-01 07:15 pmSSE 6.0-----30.18- 68.2- 62.2---
2024-03-01 07:00 pmSSE 7.0-----30.18+0.00 68.4- 62.4---
2024-03-01 06:45 pmSSE 7.0-----30.18- 68.0- 62.1---
2024-03-01 06:30 pmSSE 8.0-----30.18- 67.8- 61.9---
2024-03-01 06:15 pmSSE 8.9-----30.18- 68.5- 61.9---
2024-03-01 06:00 pmSSE 7.0-----30.18+0.00 68.9- 62.2---
2024-03-01 05:45 pmSSE 7.0-----30.18- 69.3- 62.6---
2024-03-01 05:30 pmSSE 7.0-----30.18- 70.0- 63.0---
2024-03-01 05:15 pmSSE 8.0-----30.18- 69.8- 63.1---
2024-03-01 05:00 pm SE 7.0-----30.18-0.03 68.4- 62.8---
2024-03-01 04:45 pm SE 7.0-----30.18- 68.4- 63.1---
2024-03-01 04:30 pm SE 7.0-----30.18- 68.2- 63.0---
2024-03-01 04:15 pm SE 7.0-----30.18- 67.8- 62.6---
2024-03-01 04:00 pm SE 8.9-----30.18-0.06 68.7- 62.4---
2024-03-01 03:45 pm SE 8.9-----30.18- 71.6- 63.1---
2024-03-01 03:30 pmSSE 7.0-----30.21- 72.3- 63.0---
2024-03-01 03:15 pmSSE 8.0-----30.21- 72.3- 63.0---
2024-03-01 03:00 pm SE 8.9-----30.18-0.09 72.0- 63.3---
2024-03-01 02:45 pm SE 8.9-----30.18- 72.3- 63.7---
2024-03-01 02:30 pm SE 8.0-----30.21- 72.3- 64.2---
2024-03-01 02:15 pm SE 7.0-----30.21- 72.3- 64.2---
2024-03-01 02:00 pmSSE 8.0-----30.21-0.06 72.5- 64.8---
2024-03-01 01:45 pmSSE 8.0-----30.21- 72.5- 63.9---
2024-03-01 01:30 pmSSE 8.9-----30.21- 72.7- 63.7---
2024-03-01 01:15 pmSSE 9.9-----30.24- 72.1- 64.0---
2024-03-01 01:00 pm SE 9.9-----30.24-0.03 72.7- 64.9---
2024-03-01 12:45 pm SE 11.1-----30.24- 73.4- 65.1---
2024-03-01 12:30 pm SE 9.9-----30.24- 73.0- 65.1---
2024-03-01 12:15 pm SE 9.9-----30.27- 73.8- 65.5---
2024-03-01 12:00 pm SE 8.9-----30.27+0.00 72.5- 65.5---
2024-03-01 11:45 am SE 7.0-----30.27- 72.5- 65.5---
2024-03-01 11:30 am SE 8.0-----30.27- 73.2- 66.0---
2024-03-01 11:15 am SE 7.0-----30.27- 72.7- 66.4---
2024-03-01 11:00 am SE 6.0-----30.27+0.00 71.2- 66.6---
2024-03-01 10:45 am SE 5.1-----30.27- 69.3- 66.0---
2024-03-01 10:30 am SE 5.1-----30.27- 67.8- 65.1---
2024-03-01 10:15 am SE 5.1-----30.27- 68.0- 66.0---
2024-03-01 10:00 amSSE 5.1-----30.27+0.00 66.6- 65.1---
2024-03-01 09:45 amSSE 5.1-----30.27- 65.8- 64.4---
2024-03-01 09:30 am SE 5.1-----30.27- 66.0- 64.6---
2024-03-01 09:15 am SE 5.1-----30.27- 65.8- 64.4---
2024-03-01 09:00 am SE 8.0-----30.27+0.00 65.7- 64.2---
2024-03-01 08:45 am SE 8.0-----30.27- 65.3- 63.9---
2024-03-01 08:30 am SE 7.0-----30.27- 65.1- 63.7---
2024-03-01 08:15 am SE 5.1-----30.27- 64.6- 63.1---
2024-03-01 08:00 am SE 1.9-----30.27+0.00 63.1- 61.7---
2024-03-01 07:45 am- 0.0-----30.27- 61.9- 60.4---
2024-03-01 07:30 am- 0.0-----30.27- 61.9- 60.4---
2024-03-01 07:15 am- 0.0-----30.27- 61.9- 60.4---
2024-03-01 07:00 am- 0.0-----30.27+0.00 61.9- 60.4---
2024-03-01 06:45 amNNE 1.9-----30.27- 61.9- 60.4---
2024-03-01 06:30 am N 2.9-----30.27- 61.9- 60.4---
2024-03-01 06:15 am N 2.9-----30.27- 61.9- 60.4---
2024-03-01 06:00 am N 4.1-----30.27+0.00 61.9- 60.4---
2024-03-01 05:45 am N 2.9-----30.27- 61.9- 60.4---
2024-03-01 05:30 am N 2.9-----30.27- 61.7- 60.3---
2024-03-01 05:15 am N 4.1-----30.27- 61.7- 59.9---
2024-03-01 05:00 am N 2.9-----30.27-0.03 61.7- 59.9---
2024-03-01 04:45 am N 5.1-----30.27- 61.9- 60.1---
2024-03-01 04:30 am N 4.1-----30.27- 61.9- 60.1---
2024-03-01 04:15 am N 5.1-----30.27- 62.2- 60.4---
2024-03-01 04:00 am N 4.1-----30.27-0.03 62.1- 60.3---
2024-03-01 03:45 am N 5.1-----30.27- 61.9- 60.1---
2024-03-01 03:30 am N 4.1-----30.27- 61.7- 59.9---
2024-03-01 03:15 am N 4.1-----30.27- 61.5- 59.7---
2024-03-01 03:00 am N 5.1-----30.27-0.03 61.3- 59.5---
2024-03-01 02:45 am N 6.0-----30.30- 61.5- 59.7---
2024-03-01 02:30 am N 4.1-----30.30- 61.5- 59.7---
2024-03-01 02:15 am N 5.1-----30.30- 61.5- 59.7---
2024-03-01 02:00 am N 6.0-----30.30-0.03 61.5- 59.7---
2024-03-01 01:45 am N 6.0-----30.30- 61.3- 59.5---
2024-03-01 01:30 am N 5.1-----30.30- 61.5- 59.5---
2024-03-01 01:15 am N 4.1-----30.30- 61.7- 59.7---
2024-03-01 01:00 am N 4.1-----30.30-0.03 61.7- 59.4---